This is the latest recevied weather packets stored in our database for station/object N0HOT. If no packets are shown the sender has not sent any weather packets the latest 10 day(s).
| Time | Temp. | Humidity | Pressure | Rain* | Wind** | Luminosity | Snow |
|---|---|---|---|---|---|---|---|
| 1777908772 | 22.78° C | 27% | 997 hPa | 0 mm | - | 761 W/m² | - |
| 1777908469 | 22.78° C | 27% | 997 hPa | 0 mm | - | 719 W/m² | - |
| 1777908166 | 22.22° C | 27% | 997 hPa | 0 mm | - | 703 W/m² | - |
| 1777907862 | 22.22° C | 28% | 997 hPa | 0 mm | - | 706 W/m² | - |
| 1777907558 | 22.22° C | 28% | 997 hPa | 0 mm | - | 561 W/m² | - |
| 1777907254 | 22.22° C | 29% | 997.3 hPa | 0 mm | - | 489 W/m² | - |
| 1777906951 | 22.22° C | 29% | 997.3 hPa | 0 mm | - | 262 W/m² | - |
| 1777906648 | 22.22° C | 29% | 997 hPa | 0 mm | - | 356 W/m² | - |
| 1777906344 | 21.67° C | 31% | 997.3 hPa | 0 mm | - | 467 W/m² | - |
| 1777906041 | 21.67° C | 29% | 997.3 hPa | 0 mm | - | 316 W/m² | - |
| 1777905737 | 21.11° C | 29% | 997 hPa | 0 mm | - | 281 W/m² | - |
| 1777905435 | 21.11° C | 30% | 997.3 hPa | 0 mm | - | 437 W/m² | - |
| 1777905133 | 20.56° C | 31% | 997 hPa | 0 mm | - | 285 W/m² | - |
| 1777904829 | 20° C | 31% | 997 hPa | 0 mm | - | 204 W/m² | - |
| 1777904526 | 20° C | 31% | 997.3 hPa | 0 mm | - | 238 W/m² | - |
| 1777904223 | 19.44° C | 34% | 997.3 hPa | 0 mm | - | 373 W/m² | - |
| 1777903920 | 19.44° C | 34% | 997.3 hPa | 0 mm | - | 159 W/m² | - |
| 1777903617 | 18.89° C | 36% | 997.6 hPa | 0 mm | - | 124 W/m² | - |
| 1777903312 | 18.89° C | 35% | 997.6 hPa | 0 mm | - | 145 W/m² | - |
| 1777903009 | 18.33° C | 36% | 997.6 hPa | 0 mm | - | 147 W/m² | - |
| 1777902705 | 17.78° C | 38% | 998 hPa | 0 mm | - | 132 W/m² | - |
| 1777902403 | 17.78° C | 36% | 998 hPa | 0 mm | - | 122 W/m² | - |
| 1777902099 | 17.22° C | 36% | 998 hPa | 0 mm | - | 150 W/m² | - |
| 1777901798 | 16.67° C | 39% | 998.3 hPa | 0 mm | - | 151 W/m² | - |
| 1777901495 | 16.11° C | 39% | 998.3 hPa | 0 mm | - | 167 W/m² | - |
* Rain latest hour (hover to see other rain measurements)
** Current wind speed in m/s (hover to see current wind gust speed)